contact:dominique.lefevre@mio.osupytheas.fr, maurice.libes@osupytheas.fr, didier.mallarino@osupytheas.fr
Project:EMSO http://www.emso-fr.org/EMSO-France
Depth: 2436.0 m
Title:EMSO Ligure Ouest : Data MII capteur AQUADOPP
Date,Latitude,Longitude,X_East,Y_North,Z_Up,Amplitude_X,Amplitude_Y,Amplitude_Z,Batterie,SoundSpeed,Heading,Pitch,Roll,Pressure,TIS,Speed,Direction
, degrees North, degrees East, m.s-1, m.s-1,m.s-1, 1, 1, 1, Volt, m.s-1, degree, degree, degree, dbar, degree_C, m.s-1, degree
2021-12-17T00:04:03,42.805,6.029,0.012,0.015,0.016,101.0,104.0,100.0,13.3,1505.2,326.3,-0.8,1.9,2470.593,13.28,0.019,38.7
2021-12-17T00:07:03,42.805,6.029,0.004,0.017,0.037,101.0,103.0,100.0,13.3,1505.2,325.8,-0.7,1.8,2470.603,13.28,0.017,13.2
2021-12-17T00:10:03,42.805,6.029,0.026,0.015,0.038,101.0,105.0,100.0,13.4,1505.2,326.8,-0.8,1.8,2470.581,13.28,0.03,60.0
2021-12-17T00:13:03,42.805,6.029,0.012,0.032,0.032,101.0,103.0,101.0,13.4,1505.2,327.4,-0.7,1.8,2470.607,13.28,0.034,20.6
2021-12-17T00:16:03,42.805,6.029,0.004,0.013,-0.001,102.0,105.0,100.0,13.4,1505.2,324.4,-0.8,1.8,2470.555,13.28,0.013,17.1
2021-12-17T00:19:03,42.805,6.029,0.011,0.034,0.014,102.0,103.0,100.0,13.4,1505.2,330.7,-0.8,1.8,2470.552,13.28,0.035,17.9
2021-12-17T00:22:03,42.805,6.029,0.018,0.001,0.028,103.0,102.0,101.0,13.4,1505.2,328.6,-0.8,1.9,2470.559,13.28,0.018,86.8
2021-12-17T00:25:03,42.805,6.029,-0.008,0.033,0.03,102.0,104.0,100.0,13.3,1505.2,328.4,-0.8,1.8,2470.583,13.28,0.033,346.4
2021-12-17T00:28:03,42.805,6.029,-0.004,0.011,0.009,101.0,105.0,101.0,13.4,1505.2,325.2,-0.8,1.8,2470.572,13.28,0.011,340.0
2021-12-17T00:31:03,42.805,6.029,0.0,0.001,-0.011,102.0,104.0,101.0,13.4,1505.2,325.0,-0.8,1.9,2470.593,13.28,0.001,0.0
2021-12-17T00:34:03,42.805,6.029,0.01,0.026,0.035,103.0,104.0,100.0,13.4,1505.2,329.5,-0.8,1.8,2470.593,13.28,0.027,21.0
2021-12-17T00:37:03,42.805,6.029,0.018,0.015,0.022,102.0,104.0,101.0,13.4,1505.2,330.0,-0.8,1.9,2470.556,13.28,0.023,50.2
2021-12-17T00:40:03,42.805,6.029,-0.017,-0.001,-0.002,102.0,104.0,101.0,13.4,1505.2,326.3,-0.8,1.8,2470.598,13.29,0.017,266.6
2021-12-17T00:43:03,42.805,6.029,-0.003,0.026,-0.003,102.0,103.0,100.0,13.4,1505.2,326.3,-0.7,1.8,2470.562,13.28,0.026,353.4
2021-12-17T00:46:03,42.805,6.029,0.001,0.019,0.009,101.0,104.0,100.0,13.4,1505.2,328.8,-0.7,1.9,2470.56,13.28,0.019,3.0
2021-12-17T00:49:03,42.805,6.029,-0.013,0.0,-0.002,101.0,104.0,100.0,13.3,1505.2,324.7,-0.7,1.8,2470.561,13.28,0.013,270.0
2021-12-17T00:52:03,42.805,6.029,0.023,0.008,0.018,102.0,105.0,100.0,13.4,1505.2,331.3,-0.7,1.8,2470.545,13.28,0.024,70.8
2021-12-17T00:55:03,42.805,6.029,0.013,0.013,-0.012,103.0,107.0,100.0,13.4,1505.2,327.1,-0.8,1.8,2470.528,13.28,0.018,45.0
2021-12-17T00:58:03,42.805,6.029,0.013,0.031,0.011,100.0,106.0,100.0,13.3,1505.2,331.1,-0.7,1.8,2470.57,13.28,0.033,22.7
2021-12-17T01:04:03,42.805,6.029,0.023,0.042,0.021,104.0,105.0,102.0,13.3,1505.2,327.4,-0.8,1.8,2470.595,13.28,0.047,28.7
2021-12-17T01:07:03,42.805,6.029,0.014,0.015,-0.01,101.0,103.0,100.0,13.4,1505.2,329.9,-0.7,1.8,2470.586,13.28,0.02,43.0
2021-12-17T01:10:03,42.805,6.029,0.006,0.015,0.007,102.0,103.0,100.0,13.4,1505.2,329.9,-0.7,1.8,2470.562,13.28,0.016,21.8
2021-12-17T01:13:03,42.805,6.029,0.002,0.011,0.008,101.0,105.0,100.0,13.3,1505.2,331.5,-0.7,1.8,2470.593,13.28,0.011,10.3
2021-12-17T01:16:03,42.805,6.029,0.003,0.023,0.017,101.0,104.0,100.0,13.4,1505.2,328.1,-0.8,1.8,2470.56,13.28,0.023,7.4
2021-12-17T01:19:03,42.805,6.029,-0.012,0.031,0.055,102.0,105.0,99.0,13.4,1505.2,328.0,-0.7,1.8,2470.595,13.28,0.033,338.8
2021-12-17T01:22:03,42.805,6.029,-0.001,0.012,-0.003,100.0,104.0,101.0,13.4,1505.2,328.9,-0.8,1.8,2470.591,13.28,0.012,355.2
2021-12-17T01:25:03,42.805,6.029,-0.029,0.013,-0.01,100.0,104.0,102.0,13.4,1505.2,329.8,-0.7,1.8,2470.564,13.28,0.031,294.1
2021-12-17T01:28:03,42.805,6.029,-0.003,0.019,0.034,101.0,104.0,101.0,13.4,1505.2,326.5,-0.7,1.8,2470.58,13.28,0.019,351.0
2021-12-17T01:31:03,42.805,6.029,-0.002,0.018,0.026,103.0,102.0,99.0,13.4,1505.2,326.9,-0.7,1.8,2470.537,13.28,0.018,353.7
2021-12-17T01:34:03,42.805,6.029,0.01,0.009,-0.012,102.0,103.0,100.0,13.4,1505.2,328.1,-0.8,1.9,2470.568,13.29,0.013,48.0
2021-12-17T01:37:03,42.805,6.029,-0.003,0.022,0.019,103.0,103.0,100.0,13.4,1505.2,329.6,-0.7,1.8,2470.585,13.29,0.022,352.2
2021-12-17T01:40:03,42.805,6.029,-0.006,0.008,0.042,101.0,104.0,100.0,13.4,1505.2,327.3,-0.8,1.8,2470.599,13.29,0.01,323.1
2021-12-17T01:43:03,42.805,6.029,-0.025,0.016,0.001,102.0,105.0,100.0,13.4,1505.2,328.4,-0.7,1.8,2470.528,13.29,0.029,302.6
2021-12-17T01:46:03,42.805,6.029,0.012,0.014,-0.011,102.0,104.0,100.0,13.4,1505.2,325.2,-0.8,1.8,2470.53,13.29,0.018,40.6
2021-12-17T01:49:03,42.805,6.029,0.012,0.017,0.015,101.0,104.0,101.0,13.3,1505.2,326.3,-0.7,1.8,2470.554,13.29,0.02,35.2
2021-12-17T01:52:03,42.805,6.029,0.022,0.015,0.011,102.0,104.0,100.0,13.4,1505.2,329.6,-0.8,1.8,2470.545,13.28,0.026,55.7
2021-12-17T01:55:03,42.805,6.029,0.007,0.018,0.009,101.0,105.0,100.0,13.4,1505.2,326.7,-0.7,1.8,2470.575,13.28,0.019,21.2
2021-12-17T01:58:03,42.805,6.029,0.003,0.021,0.039,101.0,105.0,100.0,13.4,1505.2,324.2,-0.8,1.8,2470.57,13.28,0.021,8.1
2021-12-17T02:04:03,42.805,6.029,0.025,0.004,0.015,101.0,105.0,100.0,13.3,1505.2,327.5,-0.7,1.8,2470.592,13.28,0.025,80.9
2021-12-17T02:07:03,42.805,6.029,0.001,0.027,0.011,100.0,104.0,101.0,13.4,1505.2,328.7,-0.8,1.8,2470.597,13.28,0.027,2.1
2021-12-17T02:10:03,42.805,6.029,0.005,0.026,0.027,101.0,104.0,100.0,13.3,1505.2,326.4,-0.8,1.8,2470.614,13.28,0.026,10.9
2021-12-17T02:13:03,42.805,6.029,0.021,0.028,0.012,100.0,106.0,99.0,13.4,1505.2,327.9,-0.8,1.9,2470.632,13.28,0.035,36.9
2021-12-17T02:16:03,42.805,6.029,0.002,0.022,0.049,100.0,106.0,100.0,13.4,1505.2,329.3,-0.7,1.8,2470.61,13.28,0.022,5.2
2021-12-17T02:19:03,42.805,6.029,-0.005,0.018,-0.006,101.0,106.0,99.0,13.4,1505.2,329.5,-0.8,1.8,2470.627,13.28,0.018,344.5
2021-12-17T02:22:03,42.805,6.029,-0.015,0.017,-0.044,102.0,105.0,100.0,13.4,1505.2,331.5,-0.8,1.9,2470.571,13.28,0.022,318.6
2021-12-17T02:25:03,42.805,6.029,0.006,0.026,0.012,102.0,105.0,101.0,13.4,1505.2,328.1,-0.8,1.9,2470.58,13.28,0.026,13.0
2021-12-17T02:28:03,42.805,6.029,0.007,0.007,0.0,102.0,106.0,100.0,13.4,1505.2,331.5,-0.8,1.8,2470.62,13.29,0.009,45.0
2021-12-17T02:31:03,42.805,6.029,-0.035,0.021,-0.04,100.0,106.0,100.0,13.3,1505.2,330.1,-0.8,1.8,2470.581,13.28,0.04,301.0
2021-12-17T02:34:03,42.805,6.029,-0.008,0.017,0.013,103.0,103.0,101.0,13.4,1505.2,327.2,-0.8,1.8,2470.57,13.28,0.018,334.8
2021-12-17T02:37:03,42.805,6.029,-0.031,0.01,-0.017,101.0,104.0,100.0,13.4,1505.2,326.1,-0.8,1.8,2470.597,13.28,0.032,287.9
2021-12-17T02:40:03,42.805,6.029,-0.01,0.011,-0.033,101.0,105.0,100.0,13.3,1505.2,327.7,-0.8,1.8,2470.572,13.28,0.014,317.7
2021-12-17T02:43:03,42.805,6.029,0.001,0.018,-0.021,101.0,104.0,101.0,13.4,1505.2,329.4,-0.7,1.8,2470.575,13.28,0.018,3.2
2021-12-17T02:46:03,42.805,6.029,0.02,0.002,0.011,101.0,104.0,100.0,13.4,1505.2,326.9,-0.8,1.8,2470.597,13.28,0.02,84.3
2021-12-17T02:49:03,42.805,6.029,-0.003,0.004,0.008,101.0,104.0,100.0,13.4,1505.2,327.9,-0.7,1.8,2470.622,13.28,0.005,323.1
2021-12-17T02:52:03,42.805,6.029,-0.017,0.006,-0.034,101.0,106.0,100.0,13.3,1505.2,323.9,-0.8,1.8,2470.574,13.28,0.018,289.4
2021-12-17T02:55:03,42.805,6.029,-0.008,0.021,0.008,101.0,104.0,101.0,13.3,1505.2,324.7,-0.8,1.8,2470.647,13.28,0.022,339.1
2021-12-17T02:58:03,42.805,6.029,-0.011,0.019,-0.004,101.0,105.0,100.0,13.4,1505.2,325.7,-0.8,1.8,2470.632,13.28,0.021,329.9
2021-12-17T03:04:03,42.805,6.029,0.002,0.016,-0.004,102.0,105.0,100.0,13.4,1505.2,326.6,-0.7,1.8,2470.692,13.28,0.016,7.1
2021-12-17T03:07:03,42.805,6.029,0.007,0.018,0.017,101.0,104.0,100.0,13.4,1505.2,324.4,-0.7,1.8,2470.663,13.28,0.019,21.2
2021-12-17T03:10:03,42.805,6.029,0.008,0.021,0.021,101.0,105.0,100.0,13.4,1505.2,326.4,-0.8,1.8,2470.682,13.28,0.022,20.9
2021-12-17T03:13:03,42.805,6.029,-0.008,0.021,-0.001,101.0,105.0,100.0,13.4,1505.2,330.2,-0.8,1.8,2470.685,13.28,0.022,339.1
2021-12-17T03:16:03,42.805,6.029,0.003,0.005,-0.001,101.0,105.0,100.0,13.4,1505.2,329.1,-0.7,1.8,2470.669,13.28,0.005,31.0
2021-12-17T03:19:03,42.805,6.029,-0.006,0.018,-0.013,101.0,106.0,100.0,13.4,1505.2,326.5,-0.8,1.8,2470.627,13.28,0.018,341.6
2021-12-17T03:22:03,42.805,6.029,-0.002,0.039,0.025,101.0,105.0,101.0,13.4,1505.2,326.8,-0.7,1.8,2470.646,13.28,0.039,357.1
2021-12-17T03:25:03,42.805,6.029,0.009,0.027,0.004,101.0,105.0,101.0,13.3,1505.2,328.8,-0.8,1.8,2470.679,13.28,0.028,18.4
2021-12-17T03:28:03,42.805,6.029,0.0,-0.007,-0.052,102.0,104.0,101.0,13.4,1505.2,328.8,-0.8,1.8,2470.642,13.28,0.007,180.0
2021-12-17T03:31:03,42.805,6.029,0.006,0.006,-0.004,102.0,103.0,101.0,13.3,1505.2,327.2,-0.8,1.8,2470.682,13.28,0.008,45.0
2021-12-17T03:34:03,42.805,6.029,0.007,0.02,-0.004,102.0,107.0,100.0,13.4,1505.2,326.8,-0.8,1.8,2470.708,13.28,0.021,19.3
2021-12-17T03:37:03,42.805,6.029,0.001,0.015,0.013,101.0,105.0,100.0,13.4,1505.2,326.5,-0.8,1.8,2470.675,13.28,0.015,3.8
2021-12-17T03:40:03,42.805,6.029,0.004,-0.01,-0.002,101.0,106.0,101.0,13.3,1505.2,329.2,-0.8,1.8,2470.705,13.28,0.01,158.2
2021-12-17T03:43:03,42.805,6.029,0.01,0.001,-0.001,101.0,105.0,101.0,13.3,1505.2,329.0,-0.8,1.8,2470.673,13.28,0.01,84.3
2021-12-17T03:46:03,42.805,6.029,0.045,0.007,0.029,101.0,107.0,99.0,13.3,1505.2,324.4,-0.8,1.8,2470.69,13.28,0.045,81.2
2021-12-17T03:49:03,42.805,6.029,-0.001,0.009,-0.01,102.0,104.0,101.0,13.4,1505.2,331.5,-0.7,1.8,2470.724,13.28,0.009,353.7
2021-12-17T03:52:03,42.805,6.029,-0.015,0.04,-0.019,102.0,104.0,101.0,13.3,1505.2,327.5,-0.8,1.8,2470.692,13.28,0.042,339.4
2021-12-17T03:55:03,42.805,6.029,0.024,0.024,0.058,101.0,105.0,102.0,13.4,1505.2,324.8,-0.7,1.8,2470.704,13.28,0.033,45.0
2021-12-17T03:58:03,42.805,6.029,0.048,0.018,0.052,101.0,106.0,100.0,13.4,1505.2,331.1,-0.8,1.8,2470.698,13.28,0.051,69.4
2021-12-17T04:04:03,42.805,6.029,0.0,0.015,0.012,102.0,104.0,99.0,13.4,1505.2,329.7,-0.8,1.8,2470.776,13.28,0.015,0.0
2021-12-17T04:07:03,42.805,6.029,0.014,0.025,0.003,102.0,104.0,100.0,13.4,1505.2,324.3,-0.8,1.8,2470.721,13.28,0.028,29.3
2021-12-17T04:10:03,42.805,6.029,-0.019,0.027,-0.004,102.0,103.0,101.0,13.4,1505.2,329.3,-0.8,1.8,2470.746,13.28,0.033,324.9
2021-12-17T04:13:03,42.805,6.029,0.001,0.031,0.025,101.0,105.0,99.0,13.4,1505.2,328.1,-0.7,1.8,2470.794,13.28,0.031,1.8
2021-12-17T04:16:03,42.805,6.029,-0.009,0.004,-0.01,102.0,105.0,101.0,13.3,1505.2,327.1,-0.7,1.9,2470.746,13.28,0.009,294.0
2021-12-17T04:19:03,42.805,6.029,-0.004,0.01,0.0,102.0,105.0,100.0,13.3,1505.2,329.1,-0.8,1.8,2470.743,13.28,0.01,338.2
2021-12-17T04:22:03,42.805,6.029,0.006,0.01,0.011,100.0,105.0,101.0,13.4,1505.2,327.6,-0.7,1.8,2470.767,13.28,0.011,31.0
2021-12-17T04:25:03,42.805,6.029,-0.001,0.035,0.019,101.0,107.0,100.0,13.4,1505.2,325.5,-0.8,1.8,2470.717,13.28,0.035,358.4
2021-12-17T04:28:03,42.805,6.029,0.0,0.014,-0.003,103.0,103.0,101.0,13.4,1505.2,326.6,-0.7,1.8,2470.763,13.28,0.014,0.0
2021-12-17T04:31:03,42.805,6.029,0.008,0.008,0.014,102.0,106.0,100.0,13.4,1505.2,328.1,-0.7,1.8,2470.758,13.28,0.011,45.0
2021-12-17T04:34:03,42.805,6.029,-0.003,0.009,-0.012,101.0,105.0,100.0,13.4,1505.2,324.8,-0.8,1.8,2470.709,13.28,0.009,341.6
2021-12-17T04:37:03,42.805,6.029,0.008,0.029,0.022,102.0,105.0,101.0,13.3,1505.2,327.8,-0.8,1.8,2470.74,13.28,0.03,15.4
2021-12-17T04:40:03,42.805,6.029,0.012,0.037,0.038,102.0,106.0,101.0,13.4,1505.2,329.1,-0.7,1.8,2470.72,13.28,0.038,18.0
2021-12-17T04:43:03,42.805,6.029,-0.001,0.027,0.027,104.0,105.0,100.0,13.3,1505.2,324.2,-0.8,1.8,2470.708,13.28,0.027,357.9
2021-12-17T04:46:03,42.805,6.029,0.018,0.01,0.002,102.0,106.0,100.0,13.4,1505.2,325.4,-0.7,1.9,2470.771,13.28,0.02,60.9
2021-12-17T04:49:03,42.805,6.029,0.003,0.024,0.011,102.0,106.0,99.0,13.4,1505.2,331.1,-0.7,1.8,2470.746,13.28,0.024,7.1
2021-12-17T04:52:03,42.805,6.029,-0.007,0.016,0.002,101.0,105.0,100.0,13.4,1505.2,328.4,-0.7,1.8,2470.747,13.28,0.017,336.4
2021-12-17T04:55:03,42.805,6.029,0.005,0.013,0.007,102.0,105.0,99.0,13.4,1505.2,325.0,-0.8,1.8,2470.727,13.28,0.013,21.0
2021-12-17T04:58:03,42.805,6.029,-0.012,0.019,0.008,102.0,104.0,101.0,13.4,1505.2,328.8,-0.8,1.8,2470.781,13.28,0.022,327.7
2021-12-17T05:01:03,42.805,6.029,0.02,0.018,0.051,101.0,104.0,100.0,13.4,1505.2,329.2,-0.7,1.8,2470.748,13.28,0.026,48.0
2021-12-17T05:04:03,42.805,6.029,0.021,0.002,-0.013,102.0,104.0,100.0,13.4,1505.2,330.0,-0.7,1.8,2470.719,13.28,0.021,84.6
2021-12-17T05:07:03,42.805,6.029,0.032,0.036,0.05,102.0,104.0,100.0,13.4,1505.2,324.8,-0.8,1.8,2470.749,13.28,0.048,41.6
2021-12-17T05:10:03,42.805,6.029,0.021,0.007,0.006,101.0,104.0,101.0,13.4,1505.2,330.0,-0.8,1.8,2470.775,13.28,0.022,71.6
2021-12-17T05:13:03,42.805,6.029,-0.006,-0.007,-0.005,101.0,105.0,100.0,13.4,1505.2,326.2,-0.7,1.8,2470.742,13.28,0.009,220.6
2021-12-17T05:16:03,42.805,6.029,-0.007,0.013,-0.026,101.0,104.0,100.0,13.4,1505.2,327.4,-0.7,1.9,2470.802,13.28,0.014,331.7
2021-12-17T05:19:03,42.805,6.029,0.021,0.004,0.0,101.0,104.0,102.0,13.4,1505.2,326.8,-0.8,1.9,2470.792,13.28,0.021,79.2
2021-12-17T05:22:03,42.805,6.029,0.016,0.01,0.02,101.0,105.0,100.0,13.4,1505.2,328.6,-0.8,1.8,2470.736,13.28,0.018,58.0
2021-12-17T05:25:03,42.805,6.029,0.024,0.013,0.023,101.0,105.0,100.0,13.4,1505.2,326.3,-0.7,1.8,2470.756,13.28,0.027,61.6
2021-12-17T05:28:03,42.805,6.029,-0.003,0.019,0.017,101.0,104.0,100.0,13.4,1505.2,327.0,-0.7,1.8,2470.753,13.28,0.019,351.0
2021-12-17T05:31:03,42.805,6.029,0.008,0.015,-0.014,102.0,105.0,100.0,13.3,1505.2,328.6,-0.8,1.8,2470.726,13.28,0.017,28.1
2021-12-17T05:34:03,42.805,6.029,0.022,-0.015,0.01,101.0,103.0,100.0,13.4,1505.2,326.7,-0.7,1.8,2470.753,13.28,0.026,124.3
2021-12-17T05:37:03,42.805,6.029,-0.002,0.022,0.008,102.0,104.0,100.0,13.3,1505.2,325.6,-0.7,1.8,2470.758,13.28,0.022,354.8
2021-12-17T05:40:03,42.805,6.029,-0.005,0.013,0.009,101.0,104.0,100.0,13.4,1505.2,326.1,-0.8,1.8,2470.802,13.28,0.013,339.0
2021-12-17T05:43:03,42.805,6.029,-0.024,0.023,0.023,101.0,104.0,100.0,13.4,1505.2,326.6,-0.8,1.8,2470.785,13.28,0.033,313.8
2021-12-17T05:46:03,42.805,6.029,-0.016,0.012,0.009,102.0,104.0,101.0,13.4,1505.2,327.1,-0.7,1.8,2470.748,13.28,0.02,306.9
2021-12-17T05:49:03,42.805,6.029,0.011,0.023,-0.007,101.0,105.0,100.0,13.4,1505.2,325.7,-0.7,1.8,2470.795,13.28,0.025,25.6
2021-12-17T05:52:03,42.805,6.029,0.013,0.005,0.003,101.0,104.0,101.0,13.4,1505.2,329.6,-0.8,1.8,2470.761,13.28,0.013,69.0
2021-12-17T05:55:03,42.805,6.029,-0.01,0.028,0.004,101.0,105.0,100.0,13.4,1505.2,328.3,-0.7,1.8,2470.789,13.28,0.029,340.4
2021-12-17T05:58:03,42.805,6.029,0.019,0.012,0.0,101.0,104.0,100.0,13.4,1505.2,330.7,-0.8,1.8,2470.774,13.28,0.022,57.7
2021-12-17T06:04:03,42.805,6.029,0.016,0.003,0.003,101.0,105.0,101.0,13.4,1505.2,326.8,-0.7,1.8,2470.817,13.28,0.016,79.4
2021-12-17T06:07:03,42.805,6.029,0.01,0.024,0.027,102.0,104.0,100.0,13.3,1505.2,330.2,-0.8,1.8,2470.829,13.28,0.026,22.6
2021-12-17T06:10:03,42.805,6.029,-0.015,0.007,-0.02,100.0,105.0,99.0,13.4,1505.2,330.8,-0.7,1.9,2470.785,13.28,0.016,295.0
2021-12-17T06:13:03,42.805,6.029,0.018,0.021,0.0,101.0,105.0,100.0,13.4,1505.2,329.3,-0.8,1.8,2470.759,13.28,0.027,40.6
2021-12-17T06:16:03,42.805,6.029,0.016,0.037,0.042,101.0,105.0,100.0,13.4,1505.2,329.7,-0.7,1.9,2470.795,13.28,0.04,23.4
2021-12-17T06:19:03,42.805,6.029,0.016,0.019,0.034,101.0,104.0,100.0,13.4,1505.2,326.9,-0.8,1.8,2470.819,13.28,0.024,40.1
2021-12-17T06:22:03,42.805,6.029,-0.011,0.023,-0.013,101.0,105.0,100.0,13.4,1505.2,326.3,-0.8,1.8,2470.767,13.28,0.025,334.4
2021-12-17T06:25:03,42.805,6.029,0.003,0.015,0.031,102.0,103.0,100.0,13.4,1505.2,326.6,-0.7,1.8,2470.783,13.28,0.015,11.3
2021-12-17T06:28:03,42.805,6.029,-0.012,0.019,0.001,101.0,105.0,100.0,13.4,1505.2,327.0,-0.8,1.9,2470.771,13.28,0.022,327.7
2021-12-17T06:31:03,42.805,6.029,0.011,0.027,0.006,101.0,104.0,100.0,13.4,1505.2,331.2,-0.8,1.8,2470.765,13.28,0.029,22.2
2021-12-17T06:34:03,42.805,6.029,-0.009,0.037,0.007,101.0,104.0,101.0,13.3,1505.2,329.6,-0.7,1.8,2470.764,13.28,0.038,346.3
2021-12-17T06:37:03,42.805,6.029,0.0,0.025,0.038,101.0,103.0,100.0,13.4,1505.2,328.4,-0.7,1.9,2470.782,13.28,0.025,0.0
2021-12-17T06:40:03,42.805,6.029,0.02,0.013,0.01,101.0,104.0,100.0,13.4,1505.2,328.7,-0.7,1.8,2470.774,13.28,0.023,57.0
2021-12-17T06:43:03,42.805,6.029,0.0,0.024,0.024,101.0,103.0,100.0,13.4,1505.2,328.2,-0.8,1.8,2470.78,13.28,0.024,0.0
2021-12-17T06:46:03,42.805,6.029,-0.004,0.021,-0.019,101.0,104.0,101.0,13.4,1505.2,329.3,-0.7,1.8,2470.786,13.28,0.021,349.2
2021-12-17T06:49:03,42.805,6.029,0.01,0.025,0.01,102.0,105.0,100.0,13.4,1505.2,330.0,-0.8,1.8,2470.781,13.28,0.026,21.8
2021-12-17T06:52:03,42.805,6.029,0.003,0.024,0.023,101.0,103.0,100.0,13.4,1505.2,329.8,-0.8,1.8,2470.743,13.28,0.024,7.1
2021-12-17T06:55:03,42.805,6.029,0.007,-0.003,0.003,101.0,105.0,100.0,13.4,1505.2,328.9,-0.7,1.8,2470.737,13.28,0.007,113.2
2021-12-17T06:58:03,42.805,6.029,0.027,0.01,0.006,102.0,103.0,101.0,13.3,1505.2,328.3,-0.8,1.8,2470.754,13.28,0.028,69.7
2021-12-17T07:04:03,42.805,6.029,0.032,-0.004,0.023,102.0,105.0,100.0,13.3,1505.2,327.8,-0.7,1.8,2470.803,13.28,0.032,97.1
2021-12-17T07:07:03,42.805,6.029,0.017,0.027,0.016,101.0,103.0,101.0,13.3,1505.2,325.0,-0.8,1.9,2470.761,13.28,0.031,32.2
2021-12-17T07:10:03,42.805,6.029,0.008,0.0,0.004,100.0,104.0,101.0,13.4,1505.2,331.6,-0.8,1.8,2470.767,13.28,0.008,90.0
2021-12-17T07:13:03,42.805,6.029,0.01,0.013,0.031,102.0,104.0,100.0,13.4,1505.2,329.0,-0.7,1.8,2470.763,13.28,0.016,37.6
2021-12-17T07:16:03,42.805,6.029,-0.007,0.025,-0.006,100.0,105.0,100.0,13.4,1505.2,328.8,-0.8,1.8,2470.779,13.28,0.025,344.4
2021-12-17T07:19:03,42.805,6.029,-0.011,0.016,0.011,101.0,104.0,101.0,13.4,1505.2,330.0,-0.8,1.9,2470.699,13.28,0.019,325.5
2021-12-17T07:22:03,42.805,6.029,0.006,0.019,0.007,101.0,104.0,100.0,13.4,1505.2,327.3,-0.7,1.8,2470.728,13.28,0.019,17.5
2021-12-17T07:25:03,42.805,6.029,0.016,0.025,0.021,100.0,104.0,100.0,13.4,1505.2,326.6,-0.7,1.8,2470.775,13.28,0.029,32.6
2021-12-17T07:28:03,42.805,6.029,-0.01,0.036,0.018,101.0,103.0,101.0,13.4,1505.2,326.3,-0.7,1.8,2470.758,13.28,0.037,344.5
2021-12-17T07:31:03,42.805,6.029,-0.001,0.024,0.029,101.0,104.0,101.0,13.4,1505.2,330.8,-0.7,1.9,2470.737,13.28,0.024,357.6
2021-12-17T07:34:03,42.805,6.029,0.003,0.009,0.0,101.0,105.0,99.0,13.4,1505.2,326.7,-0.7,1.8,2470.768,13.28,0.009,18.4
2021-12-17T07:37:03,42.805,6.029,0.005,0.004,-0.014,100.0,104.0,100.0,13.4,1505.2,327.3,-0.7,1.8,2470.746,13.28,0.006,51.3
2021-12-17T07:40:03,42.805,6.029,0.019,0.018,0.011,102.0,105.0,100.0,13.4,1505.2,324.2,-0.7,1.8,2470.74,13.28,0.026,46.5
2021-12-17T07:43:03,42.805,6.029,0.028,0.013,0.014,101.0,102.0,101.0,13.4,1505.2,329.8,-0.8,1.8,2470.749,13.28,0.03,65.1
2021-12-17T07:46:03,42.805,6.029,0.007,-0.004,0.02,101.0,103.0,99.0,13.4,1505.2,327.6,-0.7,1.9,2470.773,13.28,0.008,119.7
2021-12-17T07:49:03,42.805,6.029,0.017,-0.004,0.004,101.0,102.0,100.0,13.4,1505.2,328.4,-0.8,1.8,2470.743,13.28,0.017,103.2
2021-12-17T07:52:03,42.805,6.029,-0.002,0.028,0.025,101.0,103.0,100.0,13.4,1505.2,327.8,-0.8,1.8,2470.753,13.28,0.028,355.9
2021-12-17T07:55:03,42.805,6.029,-0.021,0.017,-0.013,100.0,102.0,101.0,13.4,1505.2,331.6,-0.7,1.8,2470.711,13.28,0.027,309.0
2021-12-17T07:58:03,42.805,6.029,0.006,0.012,-0.006,99.0,103.0,100.0,13.4,1505.2,332.1,-0.7,1.8,2470.749,13.28,0.013,26.6
2021-12-17T08:04:03,42.805,6.029,-0.007,-0.002,-0.024,100.0,102.0,100.0,13.4,1505.2,329.4,-0.7,1.8,2470.764,13.28,0.007,254.1
2021-12-17T08:07:03,42.805,6.029,-0.001,0.035,0.017,101.0,104.0,100.0,13.4,1505.2,330.7,-0.8,1.8,2470.75,13.28,0.035,358.4
2021-12-17T08:10:03,42.805,6.029,0.03,0.014,0.028,100.0,104.0,100.0,13.3,1505.2,327.3,-0.8,1.8,2470.777,13.28,0.033,65.0
2021-12-17T08:13:03,42.805,6.029,-0.019,0.01,0.006,101.0,103.0,100.0,13.4,1505.2,331.1,-0.8,1.8,2470.773,13.28,0.021,297.8
2021-12-17T08:16:03,42.805,6.029,0.003,0.021,-0.001,103.0,102.0,102.0,13.4,1505.2,327.6,-0.8,1.8,2470.732,13.28,0.021,8.1
2021-12-17T08:19:03,42.805,6.029,-0.011,0.033,-0.001,102.0,102.0,99.0,13.4,1505.2,328.3,-0.8,1.8,2470.717,13.28,0.034,341.6
2021-12-17T08:22:03,42.805,6.029,0.014,0.013,0.028,101.0,102.0,100.0,13.4,1505.2,330.6,-0.7,1.8,2470.734,13.28,0.019,47.1
2021-12-17T08:25:03,42.805,6.029,0.025,-0.007,0.022,99.0,103.0,100.0,13.4,1505.2,326.3,-0.7,1.8,2470.701,13.28,0.025,105.6
2021-12-17T08:28:03,42.805,6.029,0.008,0.011,0.047,100.0,105.0,100.0,13.4,1505.2,327.6,-0.7,1.8,2470.714,13.28,0.013,36.0
2021-12-17T08:31:03,42.805,6.029,0.023,0.008,0.017,100.0,103.0,100.0,13.3,1505.2,330.4,-0.8,1.8,2470.746,13.28,0.024,70.8
2021-12-17T08:34:03,42.805,6.029,-0.005,0.015,0.017,102.0,102.0,100.0,13.4,1505.2,326.5,-0.7,1.8,2470.7,13.29,0.015,341.6
2021-12-17T08:37:03,42.805,6.029,0.006,0.021,-0.002,99.0,102.0,100.0,13.4,1505.2,324.8,-0.7,1.8,2470.707,13.29,0.021,15.9
2021-12-17T08:40:03,42.805,6.029,-0.031,-0.001,0.002,101.0,102.0,100.0,13.4,1505.2,328.9,-0.8,1.8,2470.751,13.29,0.031,268.2
2021-12-17T08:43:03,42.805,6.029,-0.018,0.0,-0.005,100.0,103.0,100.0,13.4,1505.2,329.8,-0.8,1.8,2470.727,13.29,0.018,270.0
2021-12-17T08:46:03,42.805,6.029,0.01,0.0,-0.016,101.0,103.0,100.0,13.4,1505.2,329.6,-0.8,1.8,2470.731,13.29,0.01,90.0
2021-12-17T08:49:03,42.805,6.029,-0.004,0.007,0.024,101.0,102.0,100.0,13.3,1505.2,327.0,-0.8,1.8,2470.691,13.29,0.008,330.3
2021-12-17T08:52:03,42.805,6.029,0.014,0.012,0.041,101.0,103.0,100.0,13.4,1505.2,325.7,-0.8,1.8,2470.73,13.29,0.018,49.4
2021-12-17T08:55:03,42.805,6.029,-0.004,0.013,-0.026,100.0,103.0,100.0,13.4,1505.2,326.6,-0.8,1.8,2470.737,13.28,0.013,342.9
2021-12-17T08:58:03,42.805,6.029,-0.002,0.021,0.006,101.0,103.0,100.0,13.4,1505.2,327.9,-0.8,1.8,2470.733,13.28,0.021,354.6
2021-12-17T09:04:03,42.805,6.029,0.024,0.016,0.017,101.0,102.0,100.0,13.4,1505.2,326.6,-0.8,1.9,2470.744,13.28,0.028,56.3
2021-12-17T09:07:03,42.805,6.029,0.002,0.012,-0.022,101.0,102.0,100.0,13.4,1505.2,329.3,-0.8,1.9,2470.753,13.28,0.012,9.5
2021-12-17T09:10:03,42.805,6.029,-0.012,0.035,0.034,101.0,102.0,101.0,13.4,1505.2,324.6,-0.7,1.8,2470.745,13.28,0.037,341.1
2021-12-17T09:13:03,42.805,6.029,0.001,0.032,0.046,101.0,102.0,100.0,13.3,1505.2,325.2,-0.8,1.8,2470.701,13.28,0.032,1.8
2021-12-17T09:16:03,42.805,6.029,-0.002,0.017,0.026,102.0,102.0,100.0,13.3,1505.2,326.9,-0.7,1.8,2470.727,13.28,0.017,353.3
2021-12-17T09:19:03,42.805,6.029,0.001,0.023,0.019,101.0,103.0,101.0,13.3,1505.2,326.6,-0.8,1.8,2470.753,13.28,0.023,2.5
2021-12-17T09:22:03,42.805,6.029,-0.013,-0.002,-0.033,101.0,102.0,100.0,13.3,1505.2,327.4,-0.8,1.8,2470.666,13.29,0.013,261.3
2021-12-17T09:25:03,42.805,6.029,-0.004,0.01,-0.015,101.0,103.0,100.0,13.4,1505.2,325.2,-0.8,1.8,2470.693,13.29,0.01,338.2
2021-12-17T09:28:03,42.805,6.029,-0.008,0.016,0.028,102.0,103.0,99.0,13.4,1505.2,329.4,-0.7,1.8,2470.711,13.29,0.017,333.4
2021-12-17T09:31:03,42.805,6.029,-0.001,0.013,0.025,101.0,102.0,100.0,13.3,1505.2,329.7,-0.7,1.8,2470.691,13.29,0.013,355.6
2021-12-17T09:34:03,42.805,6.029,-0.015,0.018,0.015,100.0,104.0,100.0,13.4,1505.2,329.7,-0.7,1.8,2470.743,13.29,0.023,320.2
2021-12-17T09:37:03,42.805,6.029,0.0,0.01,-0.012,102.0,103.0,99.0,13.3,1505.2,330.1,-0.8,1.8,2470.71,13.29,0.01,0.0
2021-12-17T09:40:03,42.805,6.029,-0.01,0.029,0.009,101.0,102.0,100.0,13.4,1505.2,329.7,-0.7,1.8,2470.72,13.29,0.03,341.0
2021-12-17T09:43:03,42.805,6.029,-0.009,0.031,-0.009,101.0,103.0,104.0,13.3,1505.2,330.6,-0.7,1.8,2470.706,13.29,0.032,343.8
2021-12-17T09:46:03,42.805,6.029,-0.007,0.013,0.007,102.0,103.0,100.0,13.4,1505.2,329.4,-0.8,1.8,2470.714,13.29,0.014,331.7
2021-12-17T09:49:03,42.805,6.029,-0.006,0.01,0.004,100.0,104.0,101.0,13.4,1505.2,329.2,-0.7,1.8,2470.715,13.29,0.011,329.0
2021-12-17T09:52:03,42.805,6.029,-0.01,0.011,0.0,101.0,103.0,100.0,13.4,1505.2,327.5,-0.7,1.8,2470.685,13.29,0.014,317.7
2021-12-17T09:55:03,42.805,6.029,0.0,0.019,0.01,100.0,102.0,100.0,13.3,1505.2,329.7,-0.7,1.8,2470.708,13.29,0.019,0.0
2021-12-17T09:58:03,42.805,6.029,0.019,0.008,0.02,100.0,102.0,100.0,13.4,1505.2,329.7,-0.7,1.8,2470.706,13.29,0.02,67.2
2021-12-17T10:04:03,42.805,6.029,-0.006,0.017,0.025,101.0,103.0,100.0,13.3,1505.2,330.6,-0.8,1.8,2470.715,13.28,0.018,340.6